DECAYED

STARLINK-31725, 59538 (Decayed)

Orbit data source: Space-Track

STARLINK-31725, 59538 was a payload satellite owned by SpaceX/Seattle (US) in LEO that was launched on Thu, 18 Apr 2024 UTC via an FALCON 9 launch vehicle from the Air Force Eastern Test Range (AFETR). Payload-class satellites include a variety of spacecraft equipped with specific instruments for various scientific and technological missions. These include communications satellites like Starlink; space stations such as the ISS; scientific satellites like the Hubble; Earth observation satellites from companies like Planet Labs, Umbra, and HawkEye 360; GPS; miniature CubeSats for education and research; and military/defense satellites.

Not visible in the next 10 days
Identifier
59538, 2024-074E
Orbit
Decayed
Country
Flag of USUS
Related business
Manufacturer
SpaceX/Seattle
Mission
Decayed Commercial Communications
Bus & Motor
STARLINK V2M, Unknown motor
Mass
730 kg wet, ~700 kg dry
Launch date (UTC)
2024-04-18 (2 years ago)
Launch vehicle
FALCON 9
Launch site
Air Force Eastern Test Range (AFETR)
Object type
Payload
Rocket body
Debris
Shape & HBR
Box + 2 Pan, 17.7 m
Radar Cross Section
33.884 m², Large (>1 m²)

Expand to show TLE details & history
Last TLE update: 1 month ago

TLE from 1 month ago
0 STARLINK-31725
1 59538U 24074E   26144.66457495  .11391256  92250-5  31607-2 0  9990
2 59538  42.9733 219.7081 0016152  29.5667 330.6130 16.26500060118257
Epoch: 2026-05-24T15:56Z
TLE epoch observation values (Epoch: 2026-05-24T15:56:59.275Z)
Latitude
-0.00008°
Longitude
98.19757°
Altitude
192.47 km
Speed
7.798 km/s
True Right ascension
14h 38m 49s
True Declination
0° 00' 00"
Sunlit
Object was in full shadow at epoch
Visualization orbit readout
Latitude
Unknown
Longitude
Unknown
Altitude
Unknown
Speed
Unknown
Apparent Right ascension
Unknown
Apparent Declination
Unknown
Sunlit
N/A
Visualization observer readout
Local Sidereal Time
21:26:10
Azimuth
Unknown
Elevation
Unknown
Doppler factor
Unknown
Orbital elements
Apogee altitude
214.626 km
Perigee altitude
193.364 km
Semi-major axis
6,582.132 km
Eccentricity
0.00162
Inclination
42.9733°
RAAN
219.7081°
Arg. of periapsis
29.5667°
True anomaly
330.52202°
Mean anomaly
330.613°
Eccentric anomaly
330.56752°
Mean motion
4.06437 °/min
Orbital period
88.57 mins
BSTAR
0.0031607
Loading maneuver chart data...
Computing Atmospheric mass density...
Loading historical data...
Loading historical data...
Loading historical data...
Loading historical data...
Loading historical data...
Loading historical data...
Loading historical data...

Documentation

Showing up to 5 results
|